Hourly Data Report for July 24, 2021

NORTH CAPE
PRINCE EDWARD ISLAND
Current Station Operator: ECCC - MSC

47°03'29.000" N
63°59'55.000" W
7.60 m
8300516
71987
WNE

Download Data

Hourly Data (July 2021)
Hourly Data Report for July 24, 2021
TIME
LST
Temp Definition
°C
Dew Point Definition
°C
Rel Hum Definition
%
Precip. Amount Definition
mm

Wind Dir Definition
10's deg

Wind Spd Definition
km/h
Visibility Definition
km
Stn Press Definition
kPa
Hmdx Definition


Wind Chill Definition


Weather Definition


00:00 15.8 13.7 88 0.2 34 6   101.65     LegendNANA
01:00 15.9 13.3 85 0.0 35 7   101.65     LegendNANA
02:00 16.0 13.5 86 0.0 32 9   101.64     LegendNANA
03:00 15.1 13.4 89 1.5 32 8   101.63     LegendNANA
04:00 14.9 13.1 89 0.3   0   101.62     LegendNANA
05:00 14.4 12.9 90 0.0   0   101.64     LegendNANA
06:00 14.8 13.3 90 0.0 23 3   101.69     LegendNANA
07:00 15.0 13.2 89 0.0 19 3   101.72     LegendNANA
08:00 16.4 13.0 80 0.0 0 1   101.74     LegendNANA
09:00 18.1 14.2 78 0.0 15 3   101.73     LegendNANA
10:00 18.4 14.2 76 0.0 11 8   101.74     LegendNANA
11:00 18.8 14.8 77 0.0 11 9   101.75     LegendNANA
12:00 18.4 14.3 77 0.0 12 10   101.74     LegendNANA
13:00 18.9 15.0 78 0.0 12 11   101.71     LegendNANA
14:00 19.2 15.2 78 0.0 11 10   101.70     LegendNANA
15:00 19.6 15.6 77 0.0 12 13   101.67     LegendNANA
16:00 19.4 15.9 80 0.0 12 14   101.61     LegendNANA
17:00 19.3 15.4 78 0.0 13 14   101.61     LegendNANA
18:00 18.7 15.5 82 0.0 13 15   101.59     LegendNANA
19:00 18.3 15.3 83 0.0 14 19   101.60     LegendNANA
20:00 17.7 15.4 86 0.0 13 24   101.57     LegendNANA
21:00 17.5 15.4 87 0.0 13 25   101.60     LegendNANA
22:00 17.5 15.4 87 0.0 14 25   101.60     LegendNANA
23:00 17.6 15.7 88 0.0 14 26   101.56     LegendNANA

Notes on Data Quality.

Legend

  • E = Estimated
  • M = Missing
  • NA = Not Available*
  • [empty] = Indicates an unobserved value
Date modified: